Date,TemperatureHighF,TemperatureAvgF,TemperatureLowF,DewpointHighF,DewpointAvgF,DewpointLowF,HumidityHigh,HumidityAvg,HumidityLow,PressureMaxIn,PressureMinIn,WindSpeedMaxMPH,WindSpeedAvgMPH,GustSpeedMaxMPH,PrecipitationSumIn
2013-1-1,63.3,52.0,40.3,38.0,26.1,14.9,77,43,20,30.01,29.88,15,6,18,0.00
2013-1-2,73.8,59.0,49.1,49.9,19.0,13.8,56,22,14,29.94,29.82,21,8,24,0.00
2013-1-3,71.4,62.9,49.6,20.8,18.9,15.9,27,18,14,29.98,29.88,23,10,25,0.00
2013-1-4,73.8,61.9,43.2,32.1,19.0,18.5,63,20,18,29.98,29.68,9,9,11,0.00
2013-1-5,73.8,51.8,41.9,49.9,36.6,22.6,75,58,20,29.95,29.67,7,2,8,0.00
2013-1-6,59.7,53.9,41.0,50.9,45.1,39.4,96,73,63,29.88,29.82,10,3,10,0.02
2013-1-7,59.5,59.5,59.5,46.9,46.9,46.9,63,63,63,29.84,29.84,4,4,9,0.02
2013-1-8,82.8,62.3,45.9,51.1,44.5,30.4,87,57,17,29.98,29.84,8,3,9,0.02
2013-1-9,73.4,54.4,42.8,55.2,45.9,38.0,88,75,36,29.98,29.88,7,1,7,0.00
2013-1-10,66.7,53.0,38.8,48.5,35.2,21.0,87,56,20,29.97,29.79,15,2,17,0.00
2013-1-11,64.4,45.6,32.5,31.1,24.5,15.5,74,48,21,30.05,29.91,10,2,12,0.00
2013-1-12,66.6,45.5,33.8,30.4,25.2,18.7,68,49,17,30.02,29.93,11,3,11,0.00
2013-1-13,66.6,47.4,36.5,33.1,23.3,7.1,67,42,17,30.03,29.91,16,4,16,0.00
2013-1-14,58.5,47.6,38.7,18.7,11.3,5.5,25,23,20,30.21,30.01,22,8,22,0.00
2013-1-15,70.9,52.2,35.6,36.6,19.4,5.4,67,30,15,30.30,30.18,16,3,16,0.00
2013-1-16,76.3,64.6,53.1,27.1,22.0,17.7,27,20,13,30.20,29.99,23,8,25,0.00
2013-1-17,78.3,69.4,63.0,25.8,20.8,18.2,18,16,13,30.04,29.93,27,10,27,0.08
2013-1-18,78.4,71.2,57.9,25.8,22.6,18.0,22,16,13,30.01,29.93,21,10,21,0.00
2013-1-19,77.7,77.7,77.7,24.8,24.8,24.8,14,14,14,29.93,29.93,14,14,16,0.00
2013-1-20,77.7,77.7,77.7,24.8,24.8,24.8,14,14,14,29.93,29.93,14,14,16,0.00
2013-1-21,77.7,76.6,57.7,49.9,24.4,17.9,43,14,13,29.99,29.91,14,14,16,0.00
2013-1-22,86.2,66.9,53.1,31.5,21.6,14.6,23,18,12,29.99,29.92,13,3,13,0.00
2013-1-23,79.5,61.9,54.5,48.5,35.7,20.6,80,43,18,30.02,29.90,11,3,11,0.05
2013-1-24,64.2,58.3,52.7,57.6,53.9,48.3,97,86,72,30.08,29.97,10,2,10,0.63
2013-1-25,62.8,59.7,57.0,56.5,53.5,48.8,95,80,61,30.05,29.86,11,3,11,0.28
2013-1-26,77.4,60.9,54.3,66.5,55.3,49.3,97,83,50,29.94,29.82,11,2,11,0.17
2013-1-27,73.9,56.4,42.1,55.3,44.3,32.7,86,66,37,29.98,29.86,14,3,14,0.00
2013-1-28,66.4,50.4,37.8,38.2,33.0,24.3,77,55,25,30.13,29.97,11,2,11,0.00
2013-1-29,64.8,49.5,38.5,43.5,36.9,31.6,84,64,32,30.15,30.07,8,2,8,0.00
2013-1-30,74.3,54.3,40.6,48.6,42.3,36.5,86,67,34,30.26,30.14,8,2,8,0.00
2013-1-31,82.8,60.0,44.8,51.7,42.4,33.2,81,56,18,30.18,30.05,13,2,13,0.00
2013-2-1,86.5,59.6,47.8,49.4,40.6,37.2,68,53,21,30.08,30.05,12,2,12,0.00
2013-2-2,78.1,64.0,50.5,54.3,48.0,39.2,86,57,25,30.12,30.06,7,2,7,0.00
2013-2-3,82.6,61.2,46.8,54.4,48.5,43.8,94,66,32,30.08,29.95,10,2,12,0.00
2013-2-4,72.3,55.5,42.6,57.8,48.2,42.3,99,79,46,30.03,29.92,12,2,12,0.00
2013-2-5,61.9,53.0,45.5,53.5,48.9,43.6,99,86,65,30.03,29.93,7,2,7,0.00
2013-2-6,71.4,56.1,44.4,55.0,47.7,42.1,94,76,43,30.04,29.93,10,2,11,0.00
2013-2-7,67.5,52.5,40.1,52.0,45.1,39.1,96,77,51,30.07,29.91,12,2,12,0.00
2013-2-8,58.6,48.2,39.0,47.3,39.4,35.5,88,73,50,29.91,29.81,15,3,20,0.00
2013-2-9,66.6,49.1,36.5,41.3,36.1,27.5,89,66,26,30.03,29.87,14,2,14,0.01
2013-2-10,65.7,48.5,37.8,45.7,39.6,34.4,90,73,43,30.03,29.95,8,2,11,0.00
2013-2-11,71.1,51.4,38.7,40.4,33.9,18.5,91,60,14,30.18,30.00,21,4,21,0.00
2013-2-12,42.8,39.3,37.9,34.9,29.7,28.6,79,68,66,30.21,30.17,9,4,9,0.00
2013-2-13,39.0,39.0,39.0,28.6,28.6,28.6,66,66,66,30.21,30.21,4,4,4,0.00
2013-2-14,39.0,39.0,39.0,28.6,28.6,28.6,66,66,66,30.21,30.21,4,4,4,0.00
2013-2-15,84.0,62.2,39.0,31.3,26.3,18.9,66,34,12,30.21,30.05,21,5,21,0.00
2013-2-16,69.8,69.8,69.8,23.1,23.1,23.1,17,17,17,30.09,30.09,0,0,2,0.00
2013-2-17,71.1,67.2,54.9,51.3,36.5,23.1,81,38,17,30.09,29.88,11,3,11,0.00
2013-2-18,70.5,55.9,45.7,49.4,46.9,44.9,97,74,43,30.00,29.90,8,2,8,0.00
2013-2-19,61.9,49.6,43.5,46.8,43.6,39.0,94,81,47,29.93,29.68,9,2,9,0.11
2013-2-20,68.0,56.9,35.2,43.7,33.1,28.0,84,46,24,29.82,29.67,12,3,12,0.01
2013-2-21,68.0,67.6,43.5,36.5,30.0,29.9,74,25,24,29.93,29.80,4,4,5,0.01
2013-2-22,72.0,54.0,41.2,42.5,35.1,24.5,76,54,18,30.01,29.92,12,3,12,0.00
2013-2-23,68.9,54.4,39.4,51.3,39.2,24.8,84,58,32,29.98,29.73,14,3,14,0.00
2013-2-24,70.3,57.9,45.0,35.2,22.9,13.3,62,29,14,30.02,29.83,26,8,26,0.00
2013-2-25,73.9,54.8,38.3,42.6,33.5,17.3,76,50,14,30.04,29.90,11,3,11,0.00
2013-2-26,79.5,56.2,36.5,45.9,34.9,24.0,75,50,13,29.95,29.81,15,3,15,0.00
2013-2-27,82.4,62.4,51.4,27.2,20.9,14.3,36,21,12,30.11,29.94,21,4,21,0.00
2013-2-28,87.3,66.5,47.3,41.9,28.6,14.8,51,27,12,30.14,30.06,13,3,13,0.00
2013-3-1,91.2,69.8,55.0,34.8,27.4,20.0,44,22,11,30.13,29.99,17,4,17,0.00
2013-3-2,89.4,68.1,53.6,50.2,35.9,25.9,86,34,15,30.03,29.91,9,2,10,0.00
2013-3-3,74.7,59.6,49.8,54.0,49.5,43.2,90,71,37,29.93,29.81,13,2,14,0.00
2013-3-4,71.6,56.2,44.2,53.7,48.1,42.7,95,76,49,29.92,29.83,14,2,14,0.00
2013-3-5,73.2,55.1,45.0,52.2,48.0,42.8,94,78,46,29.95,29.85,14,3,14,0.00
2013-3-6,64.8,54.7,46.2,50.1,46.9,43.2,91,76,52,29.97,29.83,10,2,10,0.00
2013-3-7,66.6,53.7,49.6,49.4,48.3,43.7,94,83,48,29.84,29.78,10,1,10,0.01
2013-3-8,66.4,53.5,45.1,50.1,45.4,41.1,95,75,46,29.84,29.62,10,3,10,0.27
2013-3-9,72.1,55.8,40.5,48.7,43.5,38.3,93,67,34,30.03,29.84,11,2,11,0.00
2013-3-10,84.0,60.4,42.4,44.9,36.4,20.2,79,48,12,30.09,29.99,12,3,12,0.00
2013-3-11,78.3,60.0,44.1,48.1,40.5,31.0,75,52,23,30.00,29.87,11,3,11,0.00
2013-3-12,79.0,61.4,44.8,54.0,46.0,37.9,84,60,35,29.91,29.85,11,2,11,0.00
2013-3-13,81.9,65.2,44.8,56.1,47.6,39.1,85,56,32,29.93,29.86,10,2,10,0.00
2013-3-14,77.9,60.4,44.6,55.1,49.8,43.3,97,72,39,29.93,29.84,5,2,5,0.00
2013-3-15,74.3,60.7,51.6,56.5,52.6,49.1,97,77,52,29.85,29.77,10,3,10,0.00
2013-3-16,72.3,57.1,50.0,56.2,51.4,47.1,97,83,51,29.81,29.70,8,2,9,0.00
2013-3-17,74.1,56.2,46.0,56.6,49.8,44.7,98,81,48,29.84,29.75,11,2,11,0.00
2013-3-18,69.6,55.5,44.4,55.0,48.9,43.5,97,80,54,29.91,29.80,9,2,9,0.00
2013-3-19,72.0,59.9,46.8,55.5,51.2,44.8,94,75,53,29.94,29.85,11,3,11,0.00
2013-3-20,74.8,60.6,51.3,57.6,51.1,47.6,93,73,47,29.92,29.77,12,2,12,0.00
2013-3-21,77.4,60.7,48.2,57.2,50.3,45.4,91,71,44,29.79,29.63,12,2,12,0.00
2013-3-22,75.9,71.1,45.1,52.6,48.4,37.3,93,46,34,29.71,29.61,11,3,12,0.00
2013-3-23,73.9,52.7,41.5,50.0,36.5,29.9,87,55,42,29.83,29.67,4,3,11,0.00
2013-3-24,76.5,59.7,44.1,54.3,47.8,39.8,88,68,36,29.85,29.73,13,2,13,0.00
2013-3-25,75.6,59.3,44.1,56.4,48.4,39.2,91,69,41,29.80,29.73,11,2,12,0.00
2013-3-26,72.9,59.3,46.2,56.8,50.5,45.4,98,75,49,29.80,29.74,13,2,13,0.00
2013-3-27,73.9,59.5,47.7,54.2,50.1,46.3,95,74,46,29.87,29.75,11,3,11,0.00
2013-3-28,74.7,59.0,50.0,55.9,51.6,47.7,96,78,51,29.91,29.84,11,2,11,0.00
2013-3-29,76.3,60.3,50.7,58.1,52.7,49.1,96,78,51,29.93,29.87,11,3,13,0.00
2013-3-30,73.6,61.4,55.0,56.3,53.0,51.1,92,76,52,29.96,29.88,8,3,8,0.00
2013-3-31,72.5,60.8,54.9,60.3,54.0,50.6,89,79,53,29.94,29.88,7,2,7,0.06
2013-4-1,70.2,60.5,53.2,59.2,52.3,48.7,93,75,55,29.99,29.90,14,3,14,0.00
2013-4-2,75.2,61.1,48.6,58.5,51.3,46.6,94,73,48,29.92,29.83,11,2,12,0.00
2013-4-3,79.7,61.8,50.4,57.3,53.0,47.5,96,75,44,29.91,29.83,10,3,11,0.00
2013-4-4,74.7,61.8,55.8,56.6,54.2,52.4,90,78,49,29.95,29.85,13,3,13,0.00
2013-4-5,74.7,62.2,53.8,57.6,54.0,49.6,87,75,54,29.93,29.82,12,2,12,0.00
2013-4-6,77.0,62.0,49.3,56.9,52.2,47.5,94,73,48,29.92,29.77,12,3,12,0.00
2013-4-7,79.3,62.9,49.5,57.6,51.6,47.1,92,69,39,29.79,29.61,13,2,13,0.00
2013-4-8,77.5,61.4,51.6,50.5,42.4,25.9,88,56,18,29.67,29.47,20,4,21,0.00
2013-4-9,80.6,61.5,45.3,47.5,39.5,26.1,78,51,15,29.82,29.66,15,3,15,0.00
2013-4-10,89.8,67.8,48.7,48.0,36.0,24.3,70,37,11,29.93,29.80,13,2,14,0.00
2013-4-11,76.8,61.1,46.4,52.5,46.9,39.4,80,62,36,29.81,29.61,14,2,14,0.00
2013-4-12,71.4,56.6,52.2,54.4,49.9,48.7,88,79,55,29.70,29.63,12,1,12,0.00
2013-4-13,68.4,58.0,52.3,55.4,52.4,48.9,94,82,63,29.75,29.67,9,2,9,0.00
2013-4-14,67.1,58.2,54.9,55.1,53.5,52.1,94,85,63,29.71,29.67,7,2,7,0.00
2013-4-15,70.3,56.4,50.7,53.4,47.0,42.7,86,71,52,29.73,29.66,15,3,15,0.00
2013-4-16,70.9,57.9,44.1,48.5,42.6,35.4,87,60,30,29.85,29.69,15,3,15,0.00
2013-4-17,76.3,60.0,41.9,45.2,37.6,18.8,84,51,13,29.96,29.84,12,3,12,0.00
2013-4-18,86.4,66.5,52.0,36.6,26.5,18.2,53,25,12,30.04,29.95,22,6,22,0.00
2013-4-19,89.4,67.8,50.4,49.7,37.7,24.3,75,37,13,29.99,29.80,13,3,13,0.00
2013-4-20,89.1,67.8,48.6,55.8,46.5,38.5,79,50,23,29.82,29.72,11,2,11,0.00
2013-4-21,86.2,66.8,50.0,57.5,51.1,43.8,84,61,27,29.83,29.75,10,2,10,0.00
2013-4-22,74.7,64.2,56.8,56.3,54.3,53.1,88,72,52,29.83,29.73,14,3,14,0.00
2013-4-23,74.7,64.6,57.2,54.1,52.4,50.7,85,66,48,29.79,29.71,9,3,9,0.00
2013-4-24,64.0,58.9,56.1,55.5,53.7,51.4,91,83,73,29.81,29.73,4,1,4,0.00
2013-4-25,76.3,64.4,52.7,53.9,50.1,46.3,88,63,36,29.95,29.79,10,3,10,0.00
2013-4-26,78.1,63.6,50.7,54.4,50.5,45.7,86,65,40,29.97,29.93,10,3,10,0.00
2013-4-27,79.2,67.9,50.0,58.6,54.1,48.6,95,63,44,29.96,29.82,12,3,14,0.00
2013-4-28,75.6,62.3,53.1,58.8,54.5,51.6,96,78,54,29.84,29.69,11,3,11,0.00
2013-4-29,76.5,63.4,55.4,59.2,55.6,52.8,93,77,54,29.73,29.62,11,3,11,0.00
2013-4-30,76.5,64.1,58.8,57.1,54.9,53.4,87,73,50,29.72,29.65,11,2,11,0.00
2013-5-1,79.0,68.2,56.7,58.4,55.0,52.4,87,64,44,29.93,29.71,11,3,11,0.00
2013-5-2,92.5,79.0,51.3,52.5,38.3,18.2,94,35,11,29.96,29.90,26,11,27,0.20
2013-5-3,99.0,86.1,63.3,48.1,38.0,28.5,40,20,11,29.91,29.59,16,8,21,0.20
2013-5-4,83.5,67.1,51.6,58.5,52.4,35.9,81,61,36,29.66,29.55,14,3,14,0.00
2013-5-5,71.6,62.9,59.4,53.6,50.9,48.7,80,65,47,29.76,29.65,11,3,11,0.00
2013-5-6,75.6,63.6,56.5,63.0,53.4,46.3,96,72,38,29.84,29.70,11,2,11,0.14
2013-5-7,78.3,65.9,57.4,56.1,52.4,46.2,86,64,38,29.89,29.81,14,3,14,0.00
2013-5-8,77.0,64.8,55.6,58.1,52.3,47.0,89,66,42,29.92,29.88,14,3,14,0.00
2013-5-9,78.3,64.0,51.6,56.3,52.5,48.1,88,68,41,29.92,29.84,12,3,12,0.00
2013-5-10,80.4,66.9,54.0,60.0,55.6,51.4,93,69,46,29.93,29.83,14,3,14,0.00
2013-5-11,84.4,68.2,54.0,62.2,57.4,51.7,92,70,46,29.90,29.83,11,2,11,0.00
2013-5-12,90.0,73.5,55.6,64.3,58.3,53.0,92,63,35,29.88,29.74,11,2,11,0.00
2013-5-13,88.7,72.4,58.1,62.7,58.0,53.8,86,64,38,29.81,29.73,12,2,12,0.00
2013-5-14,75.7,64.1,55.0,59.1,54.3,51.3,92,72,49,29.82,29.74,14,3,14,0.00
2013-5-15,76.1,63.3,50.9,58.3,53.4,48.6,93,72,52,29.95,29.81,15,2,15,0.00
2013-5-16,77.4,62.5,52.2,59.1,53.5,49.2,92,74,51,29.95,29.87,13,2,13,0.00
2013-5-17,76.5,64.6,53.6,58.0,53.7,49.4,92,70,48,29.96,29.88,15,3,15,0.00
2013-5-18,78.8,65.4,51.4,57.4,52.1,47.8,88,65,38,30.00,29.94,13,3,13,0.00
2013-5-19,86.4,69.4,50.9,59.2,54.2,47.8,92,61,38,29.95,29.83,14,3,14,0.00
2013-5-20,83.1,69.5,52.9,60.3,55.6,49.9,91,64,42,29.92,29.85,15,3,15,0.00
2013-5-21,81.7,67.7,55.2,61.8,56.7,51.6,90,70,49,29.91,29.80,13,3,13,0.00
2013-5-22,77.4,65.6,55.2,57.7,52.4,47.8,81,64,41,29.82,29.75,14,4,14,0.05
2013-5-23,76.5,63.8,52.5,55.1,50.3,46.0,83,63,41,29.91,29.80,19,3,19,0.00
2013-5-24,77.4,64.1,50.4,57.6,50.8,44.9,85,64,44,29.95,29.87,14,3,14,0.00
2013-5-25,77.4,64.0,50.2,57.3,51.5,45.5,85,66,45,29.99,29.92,15,3,15,0.00
2013-5-26,77.0,64.9,50.4,57.5,52.9,47.7,92,68,47,30.01,29.95,14,3,14,0.00
2013-5-27,78.3,65.8,52.9,58.3,53.9,49.9,91,67,46,29.97,29.82,14,3,14,0.00
2013-5-28,82.2,68.6,54.0,60.0,55.5,50.5,89,65,42,29.85,29.71,16,3,16,0.00
2013-5-29,82.6,68.5,54.5,59.8,55.2,51.6,91,65,41,29.79,29.69,12,3,12,0.00
2013-5-30,81.5,68.8,53.4,61.1,55.8,49.8,89,66,44,29.84,29.74,11,3,11,0.00
2013-5-31,81.3,69.0,56.5,61.3,57.5,52.8,91,69,49,29.88,29.79,11,3,11,0.00
2013-6-1,86.9,69.6,57.6,63.6,58.5,54.0,90,70,44,29.83,29.71,11,3,11,0.00
2013-6-2,80.4,66.4,59.5,62.7,58.8,56.3,90,77,54,29.80,29.74,12,3,12,0.00
2013-6-3,81.7,69.8,61.3,60.5,58.0,55.8,89,68,44,29.87,29.77,12,4,12,0.00
2013-6-4,77.7,67.3,57.9,59.6,56.9,52.6,86,71,51,29.95,29.85,14,3,14,0.00
2013-6-5,76.8,63.9,52.3,59.0,54.7,49.5,92,74,52,29.98,29.91,13,3,13,0.00
2013-6-6,77.2,64.6,54.5,59.6,55.8,51.0,90,75,54,29.92,29.86,12,3,12,0.00
2013-6-7,77.4,66.5,60.3,60.1,57.4,55.3,85,74,54,29.89,29.76,11,3,11,0.00
2013-6-8,62.6,62.4,62.1,57.5,57.5,57.0,84,84,82,29.81,29.76,4,1,4,0.00
2013-6-9,62.4,62.4,62.4,57.5,57.5,57.5,84,84,84,29.76,29.76,1,1,2,0.00
2013-6-10,62.4,62.4,62.4,57.5,57.5,57.5,84,84,84,29.76,29.76,1,1,2,0.00
2013-6-11,84.7,69.7,0.0,61.7,58.2,54.2,91,68,44,29.96,29.76,12,3,12,0.00
2013-6-12,77.5,66.2,61.2,60.6,58.2,56.7,88,76,55,30.05,29.95,12,3,12,0.00
2013-6-13,78.4,68.1,59.9,61.0,57.8,54.6,83,71,53,30.03,29.91,12,3,12,0.00
2013-6-14,81.0,68.0,53.4,61.8,57.4,51.0,92,71,49,29.94,29.86,14,3,14,0.00
2013-6-15,63.3,61.8,61.0,57.4,56.9,56.6,86,84,81,29.91,29.90,6,2,6,0.00
2013-6-24,78.3,67.2,56.1,61.6,58.2,53.8,94,75,53,29.96,29.84,7,2,7,0.00
2013-6-25,82.6,71.2,63.1,62.4,59.9,58.1,86,69,50,30.02,29.92,10,3,10,0.00
2013-6-26,84.4,73.7,59.9,64.3,60.6,56.6,90,66,47,30.00,29.93,12,3,12,0.00
2013-6-27,88.5,76.3,63.3,67.4,62.6,58.4,87,65,45,30.04,29.97,8,3,8,0.00
2013-6-28,90.0,75.9,61.5,65.1,62.0,58.9,92,65,42,30.00,29.90,8,3,8,0.00
2013-6-29,92.3,78.3,61.7,66.6,61.9,58.1,88,60,41,29.90,29.75,8,2,8,0.00
2013-6-30,94.6,75.9,63.9,67.1,64.0,59.3,86,69,39,29.84,29.74,8,2,8,0.00
2013-7-1,89.4,75.1,65.1,68.0,64.7,62.1,94,72,47,29.90,29.81,11,2,11,0.00
2013-7-2,86.4,72.5,63.5,68.5,63.2,61.2,92,74,48,30.03,29.89,11,2,11,0.00
2013-7-3,82.8,70.3,63.7,65.9,62.5,60.3,92,78,54,29.95,29.83,11,3,11,0.00
2013-7-4,81.9,71.4,63.7,65.2,62.0,60.3,90,74,52,29.86,29.77,10,3,10,0.00
2013-7-5,83.1,71.8,65.1,65.3,62.2,60.8,87,73,51,29.87,29.78,12,3,12,0.00
2013-7-6,82.4,71.7,64.8,65.5,62.2,60.5,86,73,53,29.85,29.77,11,3,11,0.00
2013-7-7,82.6,70.6,62.1,64.3,60.9,57.5,89,73,49,29.88,29.80,9,2,13,0.00
2013-7-8,85.5,71.1,59.7,64.5,59.8,56.7,94,70,45,29.95,29.88,10,2,11,0.00
2013-7-9,86.4,71.7,58.6,64.3,59.7,56.3,94,69,43,30.00,29.93,14,3,14,0.00
2013-7-10,88.7,70.7,60.8,65.3,61.4,57.6,90,74,45,29.99,29.91,11,2,11,0.01
2013-7-11,83.3,71.6,64.8,67.3,63.6,60.8,88,77,55,29.99,29.91,7,2,7,0.00
2013-7-12,82.4,70.4,61.5,71.0,61.9,59.0,96,76,52,29.95,29.89,13,3,13,0.00
2013-7-13,82.8,70.3,61.3,65.8,60.5,57.4,92,73,48,29.98,29.89,11,3,11,0.00
2013-7-14,85.1,71.4,57.7,63.8,59.2,55.4,92,68,43,29.96,29.83,14,3,14,0.00
2013-7-15,84.0,70.3,58.1,63.0,57.1,54.3,90,66,42,29.89,29.84,12,3,12,0.00
2013-7-16,84.4,68.8,55.6,61.4,56.3,52.7,96,68,38,30.00,29.89,11,3,12,0.00
2013-7-17,85.8,70.6,53.6,60.4,56.1,51.0,91,64,37,30.04,29.98,12,3,12,0.00
2013-7-18,83.8,70.2,57.4,63.2,57.8,54.2,95,68,43,30.00,29.89,11,3,11,0.00
2013-7-19,82.4,69.1,55.8,61.3,57.1,53.2,92,68,43,29.93,29.84,11,2,11,0.00
2013-7-20,81.7,68.6,57.0,64.2,59.5,54.5,92,75,54,29.90,29.80,12,2,12,0.00
2013-7-21,82.6,66.4,63.9,63.8,60.7,59.3,86,82,53,29.91,29.83,6,1,6,0.00
2013-9-3,92.8,79.3,65.1,70.5,64.9,62.5,93,64,42,29.92,29.84,10,2,10,0.00
2013-9-4,90.7,77.1,64.2,66.1,62.5,60.6,89,64,40,29.94,29.87,7,2,7,0.00
2013-9-5,94.6,76.8,61.7,65.9,61.8,58.7,91,63,38,29.92,29.85,8,2,8,0.00
2013-9-6,95.2,77.5,61.0,66.1,61.1,57.4,89,62,35,29.90,29.81,8,2,8,0.00
2013-9-7,90.7,73.5,60.4,63.0,59.9,56.6,88,66,37,29.90,29.83,8,2,8,0.00
2013-9-8,83.5,70.6,61.3,64.2,59.5,57.8,92,71,45,29.87,29.78,11,2,11,0.00
2013-9-9,77.5,65.1,60.3,63.5,59.1,57.6,94,82,56,29.84,29.78,9,2,9,0.00
2013-9-10,81.7,68.6,61.2,61.9,59.2,57.1,90,74,48,29.95,29.83,11,2,11,0.00
2013-9-11,81.5,68.2,59.7,62.4,59.1,56.4,92,75,51,30.03,29.95,11,2,11,0.00
2013-9-12,87.8,70.5,56.7,64.5,58.8,55.2,96,70,42,29.95,29.85,10,2,10,0.00
2013-9-13,88.2,71.5,57.0,66.7,59.2,55.1,97,69,38,29.85,29.69,11,2,11,0.00
2013-9-14,64.2,62.1,60.1,59.5,58.0,56.8,89,86,84,29.72,29.70,1,0,1,0.00
2013-9-24,88.0,72.3,58.1,58.8,50.9,41.9,84,50,26,29.95,29.85,9,2,9,0.00
2013-9-25,78.3,65.9,54.1,61.1,54.8,50.9,91,69,44,29.86,29.71,8,2,8,0.00
2013-9-26,78.4,65.6,55.2,56.6,51.3,42.6,87,64,28,29.92,29.73,9,2,9,0.00
2013-9-27,88.7,68.1,50.2,48.6,37.2,27.5,83,41,13,30.01,29.91,14,4,14,0.00
2013-9-28,89.2,70.9,53.6,49.1,38.3,30.6,55,33,13,30.05,29.99,9,3,9,0.00
2013-9-29,88.9,69.2,51.6,56.2,45.3,35.2,78,46,21,30.07,29.99,8,3,8,0.00
2013-9-30,86.2,73.1,51.4,59.0,53.8,42.7,88,55,26,29.99,29.86,11,3,11,0.00
2013-10-1,81.7,66.7,52.5,62.2,56.7,50.8,96,73,47,29.95,29.89,11,2,11,0.00
2013-10-2,81.3,66.0,54.9,64.2,57.3,52.8,96,76,46,29.99,29.91,12,2,12,0.00
2013-10-3,78.3,65.1,56.7,61.6,57.6,54.4,95,79,49,29.95,29.84,11,2,11,0.00
2013-10-4,87.3,72.2,50.7,55.0,33.7,18.2,97,37,12,30.06,29.89,27,9,27,0.00
2013-10-5,91.0,80.1,72.0,32.7,26.4,18.5,17,14,11,30.16,30.05,29,10,29,0.00
2013-10-6,100.8,76.8,62.1,48.1,32.7,18.2,52,23,11,30.10,29.98,14,4,14,0.00
2013-10-7,85.5,67.1,54.3,57.5,45.2,29.5,89,49,24,30.00,29.92,11,2,11,0.00
2013-10-8,77.5,63.4,49.5,59.7,54.4,47.8,95,74,49,29.95,29.83,13,3,13,0.00
2013-10-9,67.6,59.8,50.0,55.7,51.2,45.3,88,74,48,29.84,29.71,17,3,17,0.00
2013-10-10,76.8,59.5,47.3,53.0,48.8,44.7,93,71,40,30.04,29.81,11,3,11,0.00
2013-10-11,77.4,61.5,49.5,56.0,51.7,47.5,94,73,43,30.06,29.97,11,2,11,0.00
2013-10-12,54.3,51.8,49.5,52.3,50.0,48.1,95,94,92,29.97,29.95,4,0,4,0.00
2013-10-25,79.0,62.7,54.9,58.4,55.7,53.2,95,79,48,30.14,30.03,5,2,5,0.00
2013-10-26,83.1,62.3,48.0,60.6,54.5,47.8,99,79,45,30.11,29.99,6,2,6,0.01
2013-10-27,73.6,60.3,47.3,58.9,53.2,45.4,95,79,56,29.99,29.83,8,2,8,0.00
2013-10-28,69.8,60.7,55.6,55.0,50.4,45.4,86,70,44,29.94,29.81,11,4,11,0.00
2013-10-29,71.4,58.7,48.0,52.6,49.6,46.4,96,74,45,30.02,29.94,8,2,8,0.00
2013-10-30,78.6,59.7,48.6,53.9,49.1,38.5,94,73,24,30.07,30.00,10,3,10,0.00
2013-10-31,82.2,59.3,46.0,49.3,45.6,31.5,93,65,16,30.09,30.02,8,2,8,0.00
2013-11-1,88.7,67.3,50.4,55.9,41.0,31.0,76,43,13,30.11,29.97,8,3,8,0.00
2013-11-2,91.0,67.2,52.9,55.3,42.9,30.7,91,47,15,29.99,29.89,8,2,8,0.00
2013-11-3,75.4,62.4,48.4,57.6,53.7,48.1,99,75,49,29.93,29.84,11,2,11,0.00
2013-11-4,75.4,61.0,50.2,58.3,52.9,47.4,92,77,48,29.97,29.81,13,2,13,0.00
2013-11-5,77.4,64.7,49.8,48.8,26.1,18.2,93,29,13,30.17,29.97,21,6,21,0.00
2013-11-6,86.0,68.0,59.5,31.2,21.1,18.3,20,17,12,30.22,30.14,17,6,17,0.00
2013-11-7,92.7,69.5,54.5,45.0,29.5,18.7,47,24,12,30.13,30.01,6,2,6,0.00
2013-11-8,82.2,63.6,49.6,57.6,42.3,26.5,95,52,17,30.04,29.94,4,1,4,0.00
2013-11-9,76.1,59.4,45.7,57.8,50.2,41.9,96,74,42,30.08,29.99,7,2,7,0.00
2013-11-10,87.8,60.1,45.7,53.7,47.5,30.8,91,69,13,30.12,30.05,9,3,9,0.00
2013-11-11,79.0,60.3,46.2,54.8,46.3,39.1,89,63,27,30.15,30.05,6,2,6,0.00
2013-11-12,79.9,62.8,52.7,56.9,50.2,42.7,83,65,37,30.18,30.08,6,2,6,0.00
2013-11-13,97.0,76.7,51.6,52.7,37.5,26.7,66,26,11,30.08,29.93,10,2,10,0.00
2013-11-14,98.1,72.2,55.0,57.7,42.1,28.1,86,39,12,29.95,29.80,9,2,9,0.00
2013-12-6,68.5,49.0,38.8,41.4,35.8,29.2,85,63,33,30.18,30.10,5,3,5,0.00
2013-12-7,60.8,46.4,35.6,52.5,38.7,28.1,99,76,47,30.13,29.98,12,3,12,0.20
2013-12-8,64.0,45.1,32.2,36.1,28.1,13.9,79,55,23,30.22,30.11,8,2,8,0.00
2013-12-9,58.5,51.1,43.7,18.6,14.1,10.2,30,23,20,30.33,30.21,23,12,23,0.18
2013-12-10,69.8,55.6,48.0,19.8,15.3,12.5,24,20,14,30.29,30.11,14,6,14,0.00
2013-12-11,73.6,60.0,49.3,24.6,17.2,12.6,23,19,13,30.19,30.11,11,5,11,0.00
2013-12-12,77.5,57.4,46.4,45.5,35.8,14.5,76,48,13,30.21,30.14,8,2,8,0.00
2013-12-14,75.6,65.8,44.4,42.8,22.7,18.4,94,22,13,30.31,30.19,17,8,17,0.04
2013-12-15,82.6,70.7,62.1,30.2,21.8,18.4,20,16,12,30.27,30.11,14,6,14,0.00
2013-12-16,90.1,72.1,59.4,40.3,27.0,20.2,46,20,12,30.14,30.06,10,3,10,0.00
2013-12-17,90.7,71.0,61.3,50.4,34.5,21.5,64,30,12,30.12,30.01,5,2,5,0.00
2013-12-18,72.0,60.6,52.3,55.6,50.6,38.5,91,72,37,29.99,29.87,9,2,9,0.00
2013-12-19,63.7,53.8,42.8,51.2,45.8,39.5,94,76,45,29.85,29.71,8,2,8,0.00
2013-12-20,72.3,56.3,39.4,44.6,38.7,25.0,91,58,18,29.95,29.81,17,3,17,0.00
2013-12-21,71.6,53.9,43.7,50.7,44.1,37.2,96,72,36,30.11,29.93,8,2,8,0.00
2013-12-22,71.6,54.2,44.6,52.8,47.6,43.4,96,81,48,30.28,30.10,8,2,8,0.00
2013-12-23,80.2,62.0,42.8,48.5,38.6,29.6,96,48,16,30.32,30.21,15,3,15,0.00
2013-12-24,86.0,66.9,50.4,47.4,35.6,26.3,66,35,13,30.21,30.09,17,4,17,0.00
2013-12-25,80.8,72.3,66.6,29.9,24.4,18.2,24,17,12,30.23,30.15,27,10,27,0.00
2013-12-26,82.4,71.1,59.5,25.8,21.1,18.2,20,15,12,30.19,30.08,23,7,23,0.00
2013-12-27,89.4,67.0,55.2,38.1,24.6,17.6,36,21,12,30.16,30.04,13,2,13,0.00
2013-12-28,80.1,59.2,44.4,53.1,36.4,20.0,93,49,15,30.04,29.93,8,1,8,0.00
2013-12-29,78.3,64.8,42.3,41.4,23.3,17.6,89,26,13,30.15,30.01,24,7,24,0.00
2013-12-30,80.1,60.4,47.7,38.6,24.7,13.5,58,28,13,30.26,30.15,8,2,8,0.00
2013-12-31,77.0,55.7,43.0,51.4,34.5,21.7,85,49,17,30.21,30.09,11,2,11,0.00
2014-1-1,76.8,55.3,40.6,53.9,43.6,33.9,87,67,39,30.15,30.05,7,2,7,0.00
2014-1-2,86.4,65.2,49.6,48.8,33.6,21.7,59,33,13,30.11,30.00,11,2,11,0.00